{"data":{"norad_id":52489,"intl_designator":"2022-049AQ","name":"STARLINK-3923","alt_names":[],"object_type":"PAYLOAD","status":"ACTIVE","operator":null,"country":"US","launch_date":"2022-05-06","launch_site_code":"AFETR","launch_vehicle":null,"mission":null,"orbit_class":"UNKNOWN","rcs_meters":null,"size_class":null,"mass_kg":null,"dimensions":null,"purposes":["comms"],"wikipedia_slug":null,"has_3d_model":false,"image_url":null,"decayed_at":null,"tle_current":{"epoch":"2026-09-20T00:21:32.071392Z","epoch_age_seconds":105165,"freshness":"FRESH","line1":"1 52489U 22049AQ  26263.01495453  .00000385  00000+0  23035-4 0  9997","line2":"2 52489  53.1557 256.0679 0001231  83.5779 276.5363 15.33548485241732","mean_motion":15.33548485,"eccentricity":0.0001231,"inclination_deg":53.1557,"raan_deg":256.0679,"arg_perigee_deg":83.5779,"mean_anomaly_deg":276.5363,"bstar":2.3035e-5,"rev_number":24173,"period_min":93.899867795833,"perigee_km":464.39287411121,"apogee_km":466.0777123698,"semimajor_km":6843.3722932405,"source":"CELESTRAK","updated_at":"2026-09-20T09:00:40.055145Z"}}}